Location: Blankensee
(53.5126°N, 14.3055°E)
Time: 18:24:56
(UTC+00:00)

Cosmos 923 Rocket - Pass Details

Date: 08 August 2020
Orbit: 758 x 785 km, 74.0° (Epoch: 19 September)

Event Time Altitude Azimuth Distance (km) Brightness Sun altitude
Rises 00:21:26 0° 334° (NNW) 3,289 8.0 -18.7°
Reaches altitude 10° 00:23:52 10° 337° (NNW) 2,355 7.2 -18.6°
Maximum altitude 00:29:12 67° 60° (ENE) 849 4.3 -18.3°
Enters shadow 00:34:20 11° 143° (SE) 2,275 6.1 -18.0°
